Location: Harwich
(41.7160°N, 69.9939°W)
Time: 05:42:28
(UTC+01:00)

A-11 Canister half - Pass Details

Date: 01 December 2023
Orbit: 1526 x 1682 km, 47.3° (Epoch: 24 February)

Event Time Altitude Azimuth Distance (km) Brightness Sun altitude
Rises 02:48:16 0° 249° (WSW) 4,928 12.1 -51.0°
Reaches altitude 10° 02:51:27 10° 250° (WSW) 3,939 11.5 -51.5°
Enters shadow 02:55:36 29° 254° (WSW) 2,716 10.4 -52.2°
